�������l�o���
Date,Time,MP-1(��Sv/h),MP-2(��Sv/h),MP-3(��Sv/h),MP-4(��Sv/h),MP-5(��Sv/h),MP-6(��Sv/h),MP-7(��Sv/h),����,����(m/s),���J
2022/04/23,00:00,0.152,0.140,0.220,0.213,0.220,0.121,0.078,�쐼,3.8,��
2022/04/23,00:10,0.152,0.139,0.219,0.212,0.218,0.120,0.077,���쐼,3.8,��
2022/04/23,00:20,0.151,0.141,0.220,0.214,0.220,0.120,0.078,���쐼,3.8,��
2022/04/23,00:30,0.153,0.141,0.221,0.212,0.219,0.121,0.077,���쐼,4.4,��
2022/04/23,00:40,0.152,0.139,0.221,0.213,0.218,0.120,0.077,�쐼,4.6,��
2022/04/23,00:50,0.153,0.140,0.220,0.214,0.219,0.121,0.078,���쐼,2.6,��
2022/04/23,01:00,0.152,0.140,0.220,0.212,0.219,0.120,0.077,���쐼,2.8,��
2022/04/23,01:10,0.152,0.139,0.221,0.214,0.216,0.121,0.078,���쐼,3.6,��
2022/04/23,01:20,0.152,0.140,0.221,0.213,0.218,0.120,0.077,��,3.5,��
2022/04/23,01:30,0.152,0.140,0.219,0.214,0.219,0.120,0.077,��,1.9,��
2022/04/23,01:40,0.152,0.140,0.221,0.213,0.219,0.121,0.078,��,2.4,��
2022/04/23,01:50,0.152,0.140,0.220,0.212,0.219,0.120,0.077,���k��,1.8,��
2022/04/23,02:00,0.153,0.140,0.221,0.214,0.218,0.120,0.078,���쐼,1.6,��
2022/04/23,02:10,0.152,0.141,0.220,0.213,0.219,0.120,0.077,�쐼,1.6,��
2022/04/23,02:20,0.153,0.141,0.219,0.213,0.218,0.121,0.077,�쐼,1.9,��
2022/04/23,02:30,0.151,0.140,0.222,0.213,0.221,0.121,0.077,�쐼,1.5,��
2022/04/23,02:40,0.153,0.140,0.221,0.213,0.218,0.120,0.077,��,2.2,��
2022/04/23,02:50,0.152,0.140,0.221,0.213,0.219,0.121,0.078,��,2.8,��
2022/04/23,03:00,0.152,0.140,0.222,0.212,0.219,0.120,0.077,��,2.0,��
2022/04/23,03:10,0.153,0.139,0.220,0.214,0.218,0.121,0.077,�쐼,2.5,��
2022/04/23,03:20,0.152,0.140,0.220,0.213,0.220,0.120,0.078,�쐼,3.1,��
2022/04/23,03:30,0.152,0.140,0.220,0.213,0.219,0.121,0.077,��,1.7,��
2022/04/23,03:40,0.152,0.140,0.220,0.215,0.220,0.121,0.077,-,CALM,��
2022/04/23,03:50,0.152,0.140,0.222,0.212,0.219,0.121,0.077,-,CALM,��
2022/04/23,04:00,0.153,0.141,0.221,0.214,0.220,0.121,0.077,�k�k��,1.0,��
2022/04/23,04:10,0.152,0.140,0.220,0.213,0.218,0.120,0.077,���쓌,1.9,��
2022/04/23,04:20,0.153,0.140,0.221,0.213,0.220,0.121,0.077,��쓌,1.1,��
2022/04/23,04:30,0.152,0.139,0.220,0.214,0.219,0.121,0.077,-,CALM,��
2022/04/23,04:40,0.152,0.140,0.220,0.213,0.218,0.120,0.078,���k��,2.6,��
2022/04/23,04:50,0.153,0.139,0.221,0.213,0.219,0.121,0.078,���k��,6.4,��
2022/04/23,05:00,0.152,0.140,0.220,0.214,0.218,0.121,0.078,���k��,7.1,��
2022/04/23,05:10,0.153,0.141,0.220,0.213,0.220,0.120,0.077,���k��,7.0,��
2022/04/23,05:20,0.153,0.139,0.222,0.213,0.218,0.120,0.077,���k��,7.6,��
2022/04/23,05:30,0.153,0.140,0.220,0.212,0.219,0.120,0.077,���k��,7.3,��
2022/04/23,05:40,0.152,0.140,0.220,0.214,0.218,0.120,0.077,���k��,7.0,��
2022/04/23,05:50,0.153,0.139,0.219,0.212,0.220,0.119,0.077,���k��,6.6,��
2022/04/23,06:00,0.151,0.140,0.221,0.213,0.218,0.120,0.078,���k��,6.0,��
2022/04/23,06:10,0.152,0.141,0.220,0.213,0.219,0.120,0.078,���k��,5.3,��
2022/04/23,06:20,0.152,0.139,0.221,0.213,0.218,0.121,0.078,���k��,3.7,��
2022/04/23,06:30,0.151,0.140,0.220,0.213,0.219,0.120,0.077,��,3.1,��
2022/04/23,06:40,0.153,0.140,0.221,0.213,0.218,0.121,0.078,��,1.5,��
2022/04/23,06:50,0.152,0.141,0.221,0.214,0.219,0.121,0.077,-,CALM,��
2022/04/23,07:00,0.151,0.141,0.219,0.213,0.219,0.121,0.078,���쐼,0.8,��
2022/04/23,07:10,0.152,0.140,0.220,0.214,0.219,0.121,0.077,�k�k��,1.0,��
2022/04/23,07:20,0.152,0.139,0.220,0.213,0.219,0.120,0.078,�k,1.2,��
2022/04/23,07:30,0.152,0.140,0.220,0.212,0.219,0.121,0.078,�k�k��,2.2,��
2022/04/23,07:40,0.153,0.140,0.220,0.214,0.220,0.120,0.077,�k�k��,2.2,��
2022/04/23,07:50,0.153,0.140,0.220,0.212,0.218,0.121,0.078,�k�k��,2.9,��
2022/04/23,08:00,0.152,0.139,0.222,0.214,0.218,0.121,0.078,�k��,2.8,��
2022/04/23,08:10,0.153,0.140,0.219,0.213,0.219,0.121,0.078,�k��,3.7,��
2022/04/23,08:20,0.152,0.138,0.222,0.210,0.217,0.120,0.077,���k��,5.3,��
2022/04/23,08:30,0.153,0.140,0.220,0.213,0.218,0.120,0.077,���k��,6.1,��
2022/04/23,08:40,0.151,0.139,0.218,0.213,0.219,0.120,0.077,���k��,8.3,��
2022/04/23,08:50,0.152,0.140,0.221,0.212,0.218,0.120,0.077,��,6.4,��
2022/04/23,09:00,0.153,0.140,0.220,0.214,0.220,0.120,0.078,���k��,4.6,��
2022/04/23,09:10,0.151,0.139,0.219,0.213,0.220,0.121,0.076,��,5.8,��
2022/04/23,09:20,0.151,0.138,0.220,0.211,0.218,0.120,0.077,���k��,4.2,��
2022/04/23,09:30,0.151,0.141,0.220,0.214,0.216,0.120,0.078,��,3.6,��
2022/04/23,09:40,0.150,0.139,0.218,0.213,0.217,0.121,0.078,��,6.1,��
2022/04/23,09:50,0.153,0.140,0.217,0.212,0.220,0.120,0.076,��,4.4,��
2022/04/23,10:00,0.153,0.138,0.219,0.211,0.220,0.120,0.077,��,4.0,��
2022/04/23,10:10,0.153,0.138,0.218,0.211,0.219,0.120,0.077,���쐼,2.1,��
2022/04/23,10:20,0.152,0.139,0.218,0.211,0.217,0.120,0.077,��,3.7,��
2022/04/23,10:30,0.151,0.139,0.218,0.211,0.218,0.121,0.076,��,2.6,��
2022/04/23,10:40,0.151,0.140,0.220,0.211,0.218,0.121,0.077,��쓌,3.9,��
2022/04/23,10:50,0.152,0.139,0.220,0.212,0.218,0.121,0.077,��쓌,4.8,��
2022/04/23,11:00,0.152,0.140,0.221,0.212,0.218,0.120,0.077,��쓌,5.9,��
2022/04/23,11:10,0.152,0.139,0.220,0.213,0.218,0.122,0.077,��쓌,5.7,��
2022/04/23,11:20,0.151,0.141,0.220,0.212,0.218,0.122,0.078,��쓌,4.6,��
2022/04/23,11:30,0.152,0.139,0.220,0.212,0.217,0.121,0.078,�쓌,3.7,��
2022/04/23,11:40,0.153,0.141,0.220,0.212,0.217,0.121,0.077,��쓌,2.8,��
2022/04/23,11:50,0.154,0.141,0.220,0.214,0.217,0.121,0.077,��쓌,4.4,��
2022/04/23,12:00,0.153,0.140,0.222,0.216,0.222,0.121,0.077,�쓌,4.8,��
2022/04/23,12:10,0.152,0.140,0.224,0.215,0.222,0.122,0.078,�쓌,5.5,��
2022/04/23,12:20,0.152,0.139,0.223,0.215,0.221,0.122,0.078,��쓌,2.0,��
2022/04/23,12:30,0.151,0.140,0.221,0.213,0.220,0.121,0.078,�쓌,4.2,��
2022/04/23,12:40,0.152,0.142,0.220,0.212,0.219,0.120,0.077,��쓌,2.1,��
2022/04/23,12:50,0.154,0.140,0.219,0.212,0.218,0.121,0.078,�쓌,3.9,��
2022/04/23,13:00,0.153,0.140,0.219,0.214,0.217,0.121,0.078,�쓌,3.2,��
2022/04/23,13:10,0.152,0.140,0.223,0.215,0.221,0.122,0.077,�쓌,3.0,��
2022/04/23,13:20,0.153,0.141,0.223,0.215,0.222,0.121,0.077,�쓌,3.9,��
2022/04/23,13:30,0.153,0.142,0.221,0.212,0.219,0.120,0.078,�쓌,4.4,��
2022/04/23,13:40,0.152,0.141,0.220,0.214,0.219,0.121,0.077,��,2.0,��
2022/04/23,13:50,0.152,0.142,0.221,0.216,0.219,0.121,0.078,-,CALM,��
2022/04/23,14:00,0.154,0.141,0.224,0.216,0.222,0.121,0.078,�k��,3.3,��
2022/04/23,14:10,0.153,0.140,0.223,0.214,0.221,0.121,0.077,���k��,9.8,��
2022/04/23,14:20,0.153,0.140,0.221,0.213,0.219,0.121,0.077,���k��,9.8,��
2022/04/23,14:30,0.151,0.139,0.221,0.213,0.219,0.121,0.078,���k��,13.7,��
2022/04/23,14:40,0.152,0.140,0.219,0.213,0.218,0.122,0.078,��,11.8,��
2022/04/23,14:50,0.153,0.140,0.219,0.215,0.217,0.121,0.078,���k��,8.9,��
2022/04/23,15:00,0.154,0.142,0.220,0.216,0.218,0.122,0.076,���k��,8.6,��
2022/04/23,15:10,0.152,0.141,0.223,0.215,0.217,0.123,0.077,���k��,9.5,��
2022/04/23,15:20,0.153,0.140,0.223,0.215,0.218,0.122,0.076,���k��,7.6,��
2022/04/23,15:30,0.154,0.140,0.221,0.214,0.219,0.120,0.078,���k��,9.2,��
2022/04/23,15:40,0.154,0.141,0.221,0.216,0.218,0.122,0.078,�k��,8.9,��
2022/04/23,15:50,0.152,0.141,0.224,0.215,0.218,0.120,0.077,�k��,11.5,��
2022/04/23,16:00,0.152,0.140,0.224,0.216,0.217,0.121,0.078,�k��,10.9,��
2022/04/23,16:10,0.155,0.142,0.222,0.217,0.219,0.121,0.077,�k��,8.1,��
2022/04/23,16:20,0.153,0.140,0.224,0.216,0.219,0.121,0.077,�k��,6.6,��
2022/04/23,16:30,0.152,0.141,0.222,0.216,0.222,0.121,0.077,�k��,5.7,��
2022/04/23,16:40,0.155,0.141,0.223,0.216,0.222,0.121,0.078,�k��,5.2,��
2022/04/23,16:50,0.153,0.142,0.225,0.215,0.220,0.120,0.077,�k��,3.7,��
2022/04/23,17:00,0.154,0.141,0.221,0.216,0.219,0.122,0.079,�k�k��,5.2,��
2022/04/23,17:10,0.154,0.140,0.223,0.214,0.222,0.122,0.077,�k�k��,5.9,��
2022/04/23,17:20,0.153,0.142,0.222,0.215,0.220,0.122,0.078,�k�k��,5.0,��
2022/04/23,17:30,0.155,0.142,0.224,0.215,0.221,0.122,0.078,�k�k��,7.5,��
2022/04/23,17:40,0.153,0.142,0.222,0.215,0.223,0.120,0.077,���k��,6.8,��
2022/04/23,17:50,0.154,0.141,0.224,0.216,0.220,0.121,0.077,�k��,6.5,��
2022/04/23,18:00,0.153,0.141,0.222,0.215,0.221,0.121,0.077,���k��,8.9,��
2022/04/23,18:10,0.155,0.142,0.224,0.217,0.220,0.121,0.078,�k��,5.8,��
2022/04/23,18:20,0.154,0.141,0.223,0.216,0.221,0.122,0.078,���k��,8.7,��
2022/04/23,18:30,0.153,0.142,0.223,0.217,0.220,0.121,0.078,�k��,8.4,��
2022/04/23,18:40,0.154,0.141,0.223,0.215,0.222,0.121,0.077,�k��,6.6,��
2022/04/23,18:50,0.153,0.141,0.224,0.215,0.221,0.121,0.078,�k��,5.9,��
2022/04/23,19:00,0.156,0.142,0.222,0.215,0.220,0.122,0.077,�k��,4.7,��
2022/04/23,19:10,0.153,0.141,0.224,0.217,0.221,0.121,0.078,�k,5.1,��
2022/04/23,19:20,0.154,0.140,0.221,0.215,0.221,0.123,0.078,�k�k��,2.5,��
2022/04/23,19:30,0.153,0.141,0.223,0.216,0.221,0.121,0.078,�k�k��,3.0,��
2022/04/23,19:40,0.154,0.142,0.222,0.216,0.220,0.121,0.077,�k�k��,3.4,��
2022/04/23,19:50,0.154,0.140,0.224,0.217,0.221,0.121,0.078,�k,4.2,��
2022/04/23,20:00,0.154,0.142,0.223,0.216,0.219,0.121,0.078,�k�k��,5.1,��
2022/04/23,20:10,0.154,0.141,0.223,0.216,0.221,0.120,0.078,�k��,6.1,��
2022/04/23,20:20,0.154,0.141,0.222,0.215,0.220,0.122,0.078,�k�k��,3.1,��
2022/04/23,20:30,0.154,0.142,0.223,0.215,0.220,0.122,0.077,�k�k��,1.6,��
2022/04/23,20:40,0.154,0.141,0.224,0.216,0.222,0.121,0.077,�k�k��,3.3,��
2022/04/23,20:50,0.154,0.141,0.222,0.216,0.220,0.121,0.078,�k�k��,3.6,��
2022/04/23,21:00,0.153,0.142,0.223,0.217,0.221,0.122,0.077,�k,3.3,��
2022/04/23,21:10,0.155,0.140,0.224,0.216,0.219,0.122,0.077,�k,3.0,��
2022/04/23,21:20,0.154,0.141,0.222,0.217,0.221,0.121,0.078,�k,2.6,��
2022/04/23,21:30,0.154,0.141,0.224,0.216,0.220,0.122,0.077,�k�k��,4.4,��
2022/04/23,21:40,0.153,0.141,0.223,0.216,0.221,0.120,0.077,�k,5.1,��
2022/04/23,21:50,0.153,0.142,0.222,0.216,0.220,0.122,0.078,�k,5.5,��
2022/04/23,22:00,0.154,0.141,0.223,0.216,0.220,0.121,0.077,�k,5.0,��
2022/04/23,22:10,0.154,0.142,0.223,0.217,0.221,0.122,0.077,�k,3.7,��
2022/04/23,22:20,0.154,0.142,0.222,0.216,0.220,0.121,0.077,�k,3.6,��
2022/04/23,22:30,0.154,0.142,0.223,0.214,0.222,0.121,0.078,�k�k��,4.0,��
2022/04/23,22:40,0.153,0.142,0.222,0.215,0.221,0.121,0.077,�k�k��,3.8,��
2022/04/23,22:50,0.154,0.141,0.224,0.217,0.220,0.121,0.078,�k�k��,4.8,��
2022/04/23,23:00,0.153,0.142,0.222,0.216,0.220,0.122,0.078,�k,5.3,��
2022/04/23,23:10,0.154,0.143,0.222,0.216,0.219,0.121,0.078,�k�k��,4.7,��
2022/04/23,23:20,0.153,0.140,0.224,0.215,0.221,0.121,0.078,�k,4.4,��
2022/04/23,23:30,0.153,0.141,0.223,0.216,0.220,0.121,0.077,�k�k��,4.3,��
2022/04/23,23:40,0.154,0.142,0.223,0.216,0.222,0.122,0.077,�k,3.2,��
2022/04/23,23:50,0.153,0.140,0.223,0.214,0.220,0.122,0.077,�k�k��,2.6,��
